Home > Time Zones > World Clock > Weather > Japan > Tokyo > Past weeks

Flag for Japan Weather past 2 weeks in Tokyo, Japan

Now
67 °F

Mild.


Feels Like: 67 °F
Forecast: 61 / 75 °F
Wind: 5 mph from North

Location: Tokyo

Current Time: Sep 22, 2014 at 7:47:15 AM

Latest Report: Sep 22, 2014 at 7:00 AM


Visibility: N/A

Pressure: 30.07 "Hg

Humidity: 73%

Dew point: 58 °F

Location of TokyoLocation

Historic Weather in Tokyo — Graph

°F

Tokyo temperature yesterday

Maximum temperature yesterday: 78 °F (at 12:00 PM)
Minimum temperature yesterday: 62 °F (at 6:00 AM)
Average temperature yesterday: 71 °F

Past Weeks' High & Low Weather Summary

 TemperatureHumidityPressure
High84 °F (Sep 16, 12:00 PM)93% (Sep 8, 5:00 AM)30.06 "Hg (Sep 8, 5:00 AM)
Low62 °F (Sep 21, 6:00 AM)29% (Sep 18, 7:00 PM)29.63 "Hg (Sep 9, 2:00 PM)
Average73 °F67%29.87 "Hg
* Reported Sep 7 6:00 AM — Sep 22 6:00 AM, Tokyo, Weather by CustomWeather, © 2014

Note: Actual official high and low records may vary slightly from our data, if they occured in-between our weather recording intervals... More about our weather records

Advertising

Tokyo weather history for previous 24 hours

 ConditionsComfort  
Time TempWeatherWind HumidityBarometerVisibility
6:00 AM
Sep 22
67 °FOvercast.3 mph74%30.06 "Hg9 mi
5:00 AM68 °FMild.3 mph75%30.04 "HgN/A
4:00 AM68 °FMild.3 mph69%30.04 "HgN/A
3:00 AM67 °FOvercast.2 mph82%30.04 "Hg12 mi
2:00 AM68 °FMild.2 mph82%30.04 "HgN/A
1:00 AM69 °FMild.3 mph74%30.03 "HgN/A
12:00 AM70 °FMild.3 mph64%30.04 "HgN/A
11:00 PM
Sep 21
70 °FMild.5 mph63%30.05 "HgN/A
10:00 PM71 °FMild.5 mph62%30.04 "HgN/A
9:00 PM71 °FOvercast.5 mph57%30.05 "Hg12 mi
8:00 PM72 °FMild.8 mph58%30.05 "HgN/A
7:00 PM72 °FMild.9 mph64%30.04 "HgN/A
6:00 PM73 °FPassing clouds.8 mph59%30.01 "Hg12 mi
5:00 PM76 °FMild.9 mph50%30.00 "HgN/A
4:00 PM77 °FWarm.8 mph45%29.99 "HgN/A
3:00 PM77 °FPartly sunny.3 mph41%29.98 "Hg12 mi
2:00 PM77 °FMild.3 mph40%29.99 "HgN/A
1:00 PM77 °FWarm.3 mph40%30.01 "HgN/A
12:00 PM78 °FScattered clouds.7 mph43%30.02 "Hg12 mi
11:00 AM75 °FMild.5 mph47%30.04 "HgN/A
10:00 AM72 °FMild.6 mph54%30.06 "HgN/A
9:00 AM71 °FOvercast.7 mph58%30.06 "Hg12 mi
8:00 AM68 °FMild.7 mph64%30.06 "HgN/A
7:00 AM64 °FMild.6 mph69%30.06 "HgN/A
Weather by CustomWeather, © 2014

See weather overviewHow to use our weather pages